Nenana, AK

9:27 AM AKDT on September 26, 2017 (GMT -0800)
Nenana Municipal

Weather History for PANN - October, 2013

Change the Weather History Date:

Monday, October 7, 2013

  Actual Average Record
Temperature  
Mean Temperature 45 °F -  
Max Temperature 57 °F 40 °F 64 °F (1964)
Min Temperature 33 °F 24 °F 17 °F (2014)
Degree Days  
Heating Degree Days 20    
Moisture  
Dew Point 33 °F    
Average Humidity 89    
Maximum Humidity 100    
Minimum Humidity 54    
Precipitation  
Precipitation 0.02 in - - ()
Sea Level Pressure  
Sea Level Pressure 29.77 in    
Wind  
Wind Speed 3 mph (East)    
Max Wind Speed 21 mph    
Max Gust Speed 26 mph    
Visibility 9 miles    
Events Rain    
Averages and records for this station are not official NWS values.
T = Trace of Precipitation, MM = Missing Value Source: NWS Daily Summary

Daily Weather History Graph

Daily Weather History Graph

Search for Another Location

Airport or City:

Trip Planner

Search our weather history database for the weather conditions in past years. The results will help you decide how hot, cold, wet, or windy it might be!

Date:

Astronomy

Oct. 07, 2013 Rise Set
Actual Time 8:24 AM AKDT 7:01 PM AKDT
Civil Twilight 7:36 AM AKDT 7:49 PM AKDT
Nautical Twilight 6:39 AM AKDT 8:46 PM AKDT
Astronomical Twilight 5:40 AM AKDT 9:44 PM AKDT
Moon 12:43 PM AKDT (10/7) 7:32 PM AKDT (10/7)
Length of Visible Light 12h 13m
Length of Day
10h 36m
Waxing Crescent, 9% of the Moon is Illuminated
Oct 7
Waxing Crescent
Oct 11
First Quarter
Oct 18
Full
Oct 26
Last Quarter
Nov 3
New

Hourly Weather History & Observations

Time (AKDT) Temp. Windchill Dew Point Humidity Pressure Visibility Wind Dir Wind Speed Gust Speed Precip Events Conditions
12:53 AM 33.1 °F - 32.0 °F 96% 29.74 in 8.0 mi Calm Calm - N/A   Overcast
1:53 AM 33.1 °F - 32.0 °F 96% 29.74 in 4.0 mi Calm Calm - 0.00 in   Overcast
2:16 AM 33.8 °F - 32.0 °F 93% 29.72 in 1.8 mi Calm Calm - N/A   Overcast
2:44 AM 33.8 °F - 32.0 °F 93% 29.72 in 2.0 mi Calm Calm - N/A   Overcast
2:53 AM 33.1 °F - 32.0 °F 96% 29.75 in 2.0 mi Calm Calm - N/A   Overcast
3:16 AM 33.8 °F - 32.0 °F 93% 29.72 in 2.0 mi Calm Calm - N/A   Overcast
3:27 AM 33.8 °F - 32.0 °F 93% 29.73 in 5.0 mi Calm Calm - N/A   Overcast
3:53 AM 33.1 °F - 32.0 °F 96% 29.75 in 6.0 mi Calm Calm - N/A   Overcast
4:53 AM 33.1 °F - 32.0 °F 96% 29.77 in 8.0 mi Calm Calm - N/A   Overcast
5:38 AM 33.8 °F - 32.0 °F 93% 29.74 in 10.0 mi Calm Calm - N/A   Overcast
5:53 AM 33.1 °F - 32.0 °F 96% 29.77 in 7.0 mi Calm Calm - N/A   Overcast
6:53 AM 33.1 °F - 32.0 °F 96% 29.78 in 10.0 mi Calm Calm - N/A   Overcast
7:53 AM 33.1 °F - 32.0 °F 96% 29.79 in 10.0 mi Calm Calm - N/A   Overcast
8:32 AM 33.8 °F - 32.0 °F 93% 29.76 in 10.0 mi Calm Calm - N/A   Overcast
8:53 AM 33.1 °F - 32.0 °F 96% 29.80 in 10.0 mi Calm Calm - N/A   Overcast
9:53 AM 34.0 °F - 32.0 °F 92% 29.81 in 10.0 mi Calm Calm - N/A   Overcast
10:20 AM 33.8 °F - 33.8 °F 100% 29.79 in 10.0 mi Calm Calm - N/A   Overcast
10:53 AM 35.1 °F - 33.1 °F 92% 29.81 in 10.0 mi Calm Calm - N/A   Overcast
11:53 AM 36.0 °F 33.3 °F 32.0 °F 86% 29.82 in 10.0 mi ESE 3.5 mph - N/A   Overcast
12:53 PM 36.0 °F 32.1 °F 32.0 °F 86% 29.83 in 10.0 mi ESE 4.6 mph - N/A   Overcast
1:53 PM 37.0 °F - 33.1 °F 86% 29.83 in 10.0 mi Calm Calm - N/A   Overcast
2:37 PM 37.4 °F 30.8 °F 33.8 °F 87% 29.81 in 10.0 mi East 9.2 mph - N/A   Overcast
2:53 PM 37.9 °F 32.7 °F 33.1 °F 83% 29.83 in 10.0 mi East 6.9 mph - N/A   Mostly Cloudy
3:53 PM 37.0 °F 32.4 °F 32.0 °F 82% 29.84 in 10.0 mi East 5.8 mph - N/A   Overcast
4:53 PM 37.0 °F 31.0 °F 32.0 °F 82% 29.84 in 10.0 mi East 8.1 mph - N/A   Overcast
5:53 PM 36.0 °F 30.3 °F 32.0 °F 86% 29.83 in 10.0 mi East 6.9 mph - N/A   Overcast
6:53 PM 34.0 °F 27.2 °F 32.0 °F 92% 29.82 in 10.0 mi ENE 8.1 mph 17.3 mph N/A   Overcast
7:53 PM 35.1 °F 28.6 °F 32.0 °F 89% 29.80 in 10.0 mi ENE 8.1 mph - N/A   Overcast
8:15 PM 35.6 °F 29.2 °F 32.0 °F 87% 29.76 in 10.0 mi ENE 8.1 mph - N/A   Overcast
8:44 PM 35.6 °F 27.1 °F 32.0 °F 87% 29.75 in 10.0 mi ENE 12.7 mph - N/A   Partly Cloudy
8:53 PM 35.1 °F 27.4 °F 32.0 °F 89% 29.78 in 10.0 mi ENE 10.4 mph - N/A   Partly Cloudy
9:10 PM 35.6 °F 28.0 °F 32.0 °F 87% 29.74 in 10.0 mi ENE 10.4 mph - N/A   Mostly Cloudy
9:53 PM 36.0 °F 28.5 °F 32.0 °F 86% 29.75 in 10.0 mi ENE 10.4 mph - N/A   Overcast
10:53 PM 36.0 °F 26.3 °F 32.0 °F 86% 29.71 in 10.0 mi East 16.1 mph 25.3 mph N/A   Overcast
11:39 PM 35.6 °F 24.5 °F 30.2 °F 81% 29.67 in 10.0 mi East 20.7 mph 26.5 mph N/A   Overcast
11:53 PM 35.1 °F 24.1 °F 30.9 °F 85% 29.68 in 10.0 mi East 19.6 mph 24.2 mph N/A   Overcast